Location: Praha
(50.0830°N, 14.4670°E)
Time: 10:40:37
(UTC+02:00)

ISS - Pass Details

Date: 16 May 2019
Orbit: 407 x 410 km, 51.6° (Epoch: 21 May)

Event Time Altitude Azimuth Distance (km) Brightness Sun altitude
Exits shadow 03:02:27 - 283° (WNW) 1,854 -0.7 -15.7°
Reaches altitude 10° 03:03:22 10° 285° (WNW) 1,476 -1.2 -15.6°
Maximum altitude 03:06:41 76° 11° (N) 427 -3.7 -15.3°
Drops below altitude 10° 03:10:00 10° 98° (E) 1,475 -0.7 -15.1°
Sets 03:12:05 0° 100° (E) 2,335 0.3 -14.9°
